CW8192 Weather Reports


Display with metric or nautical units.
time (UTC)temp
F
wind
direction
speed
MPH
gust
MPH
rain 1hr
in
rain 24hr
in
rain mn
in
humidity
%
barometer
mb
20260504050204 42 71 1.0 2.0 0.00 0.00 0.00 83 1010.6
20260504045704 42 201 0.0 1.0 0.00 0.00 0.00 83 1010.7
20260504044704 42 202 2.0 3.0 0.00 0.00 0.00 83 1010.9
20260504043705 42 130 1.0 2.0 0.00 0.00 0.00 84 1011.1
20260504043205 42 74 2.0 3.0 0.00 0.00 0.00 84 1011.2
20260504042704 42 113 1.0 2.0 0.00 0.00 0.00 81 1011.2
20260504042204 42 115 0.0 2.0 0.00 0.00 0.00 83 1011.1
20260504041705 41 115 1.0 2.0 0.00 0.00 0.00 84 1011.0
20260504041204 41 130 0.0 3.0 0.00 0.00 0.00 84 1011.0
20260504040705 41 173 0.0 1.0 0.00 0.00 0.00 82 1011.0
20260504035704 41 158 1.0 2.0 0.00 0.00 0.00 81 1010.8
20260504035204 41 117 2.0 3.0 0.00 0.00 0.00 82 1010.8
20260504034704 41 135 2.0 3.0 0.00 0.00 0.00 82 1010.7
20260504034204 41 102 1.0 2.0 0.00 0.00 0.00 82 1010.7
20260504033705 41 99 1.0 2.0 0.00 0.00 0.00 82 1010.6
20260504033206 41 153 0.0 2.0 0.00 0.00 0.00 83 1010.6
20260504032704 41 122 1.0 2.0 0.00 0.00 0.00 82 1010.6
20260504032204 41 138 1.0 2.0 0.00 0.00 0.00 82 1010.6
20260504031704 41 200 1.0 3.0 0.00 0.00 0.00 80 1010.5
20260504031205 40 157 0.0 1.0 0.00 0.00 0.00 78 1010.5
20260504030704 40 144 2.0 3.0 0.00 0.00 0.00 79 1010.5
20260504025705 41 138 2.0 3.0 0.00 0.00 0.00 73 1010.5
20260504025204 42 266 1.0 2.0 0.00 0.00 0.00 71 1010.4
20260504024705 42 271 0.0 1.0 0.00 0.00 0.00 71 1010.4
20260504024204 42 282 0.0 1.0 0.00 0.00 0.00 70 1010.4
20260504023704 43 292 0.0 0.0 0.00 0.00 0.00 69 1010.3
20260504023204 43 292 0.0 0.0 0.00 0.00 0.00 69 1010.4
20260504022705 44 292 0.0 0.0 0.00 0.00 0.00 68 1010.4
20260504022204 44 292 0.0 0.0 0.00 0.00 0.00 69 1010.5
20260504021704 45 292 0.0 0.0 0.00 0.00 0.00 67 1010.6
20260504021204 45 292 0.0 0.0 0.00 0.00 0.00 65 1010.6
20260504020704 45 292 0.0 0.0 0.00 0.00 0.00 64 1010.5
20260504015704 46 292 0.0 2.0 0.00 0.00 0.00 65 1010.6
20260504014704 46 277 1.0 2.0 0.00 0.00 0.00 62 1010.6
20260504013204 47 286 1.0 2.0 0.00 0.00 0.00 61 1010.4
20260504012704 47 288 2.0 3.0 0.00 0.00 0.00 60 1010.4
20260504012205 47 280 2.0 3.0 0.00 0.00 0.00 60 1010.4
20260504011205 48 290 3.0 6.0 0.00 0.00 0.00 59 1010.2
20260504010704 48 291 3.0 6.0 0.00 0.00 0.00 60 1010.1
20260504005704 48 289 3.0 8.0 0.00 0.00 0.00 58 1010.0
20260504005204 48 287 3.0 7.0 0.00 0.00 0.00 59 1010.0
20260504004705 48 287 4.0 10.0 0.00 0.00 0.00 58 1009.9
20260504004204 49 279 6.0 9.0 0.00 0.00 0.00 57 1010.0
20260504003704 49 274 5.0 8.0 0.00 0.00 0.00 57 1009.9
20260504003204 49 289 5.0 9.0 0.00 0.00 0.00 57 1009.9
20260504002704 49 288 6.0 8.0 0.00 0.00 0.00 56 1009.8
20260504002204 49 290 7.0 12.0 0.00 0.00 0.00 56 1009.8
20260504001703 49 281 7.0 14.0 0.00 0.00 0.00 56 1009.7
20260504001204 49 277 6.0 12.0 0.00 0.00 0.00 55 1009.6
20260504000204 50 288 8.0 13.0 0.00 0.00 0.00 54 1009.4
20260503235704 50 289 9.0 14.0 0.00 0.00 0.00 53 1009.4
20260503235204 50 278 7.0 14.0 0.00 0.00 0.00 53 1009.3
20260503234704 50 284 10.0 18.0 0.00 0.00 0.00 53 1009.3
20260503234204 51 303 9.0 18.0 0.00 0.00 0.00 52 1009.2
20260503233204 51 290 7.0 12.0 0.00 0.00 0.00 51 1009.1
20260503232204 51 298 8.0 14.0 0.00 0.00 0.00 49 1008.8
20260503231204 52 291 10.0 15.0 0.00 0.00 0.00 50 1008.7
20260503230704 52 303 9.0 14.0 0.00 0.00 0.00 51 1008.7
20260503230204 51 294 9.0 14.0 0.00 0.00 0.00 50 1008.6
20260503225704 52 278 7.0 12.0 0.00 0.00 0.00 50 1008.6
20260503225204 52 280 6.0 12.0 0.00 0.00 0.00 49 1008.5
20260503224704 52 299 6.0 13.0 0.00 0.00 0.00 48 1008.6
20260503224203 52 291 7.0 12.0 0.00 0.00 0.00 49 1008.5
20260503223704 52 282 7.0 12.0 0.00 0.00 0.00 47 1008.6
20260503223204 52 296 9.0 16.0 0.00 0.00 0.00 48 1008.5
20260503222205 53 286 7.0 13.0 0.00 0.00 0.00 47 1008.6
20260503221704 53 292 9.0 14.0 0.00 0.00 0.00 45 1008.5
20260503221204 53 344 6.0 15.0 0.00 0.00 0.00 48 1008.6
20260503220204 54 308 9.0 14.0 0.00 0.00 0.00 45 1008.6
20260503215705 54 273 6.0 12.0 0.00 0.00 0.00 45 1008.6
20260503215205 55 289 7.0 17.0 0.00 0.00 0.00 43 1008.6
20260503214705 55 291 13.0 20.0 0.00 0.00 0.00 44 1008.5
20260503214206 55 301 9.0 16.0 0.00 0.00 0.00 44 1008.4
20260503213705 55 293 9.0 16.0 0.00 0.00 0.00 45 1008.4
20260503213205 56 306 8.0 15.0 0.00 0.00 0.00 45 1008.5
20260503211705 57 288 10.0 20.0 0.00 0.00 0.00 45 1008.4
20260503211205 56 280 10.0 17.0 0.00 0.00 0.00 46 1008.4
20260503210705 56 291 7.0 14.0 0.00 0.00 0.00 49 1008.5
20260503210205 55 280 8.0 12.0 0.00 0.00 0.00 47 1008.4
20260503205705 56 288 10.0 18.0 0.00 0.00 0.00 48 1008.5
20260503204705 55 297 7.0 13.0 0.00 0.00 0.00 50 1008.6
20260503204205 55 291 7.0 15.0 0.00 0.00 0.00 47 1008.7
20260503203705 55 274 6.0 14.0 0.00 0.00 0.00 48 1008.7
20260503203205 56 290 9.0 15.0 0.00 0.00 0.00 49 1008.7
20260503202705 57 283 10.0 18.0 0.00 0.00 0.00 48 1008.8
20260503201705 56 302 9.0 15.0 0.00 0.00 0.00 51 1008.8
20260503201205 56 282 12.0 17.0 0.00 0.00 0.00 50 1008.8
20260503200705 55 313 3.0 10.0 0.00 0.00 0.00 50 1008.9
20260503200205 54 324 3.0 10.0 0.00 0.00 0.00 51 1008.9
20260503195705 54 312 3.0 10.0 0.00 0.00 0.00 50 1009.0
20260503194707 53 296 10.0 16.0 0.00 0.00 0.00 53 1009.0
20260503194205 53 294 4.0 10.0 0.00 0.00 0.00 53 1009.1
20260503193705 52 295 4.0 12.0 0.00 0.00 0.00 53 1009.2
20260503192705 52 303 4.0 10.0 0.00 0.00 0.00 53 1009.4
20260503192205 52 289 6.0 12.0 0.00 0.00 0.00 55 1009.4
20260503191704 51 278 9.0 14.0 0.00 0.00 0.00 55 1009.5
20260503190705 52 300 6.0 14.0 0.00 0.00 0.00 55 1009.6
20260503190206 52 284 7.0 12.0 0.00 0.00 0.00 55 1009.6
20260503185705 51 288 6.0 12.0 0.00 0.00 0.00 57 1009.6
20260503185205 50 298 6.0 9.0 0.00 0.00 0.00 57 1009.8
20260503184705 50 290 7.0 15.0 0.00 0.00 0.00 57 1009.9
20260503184205 51 280 8.0 16.0 0.00 0.00 0.00 56 1009.9
20260503183705 51 295 9.0 14.0 0.00 0.00 0.00 57 1009.9
20260503183205 51 304 6.0 12.0 0.00 0.00 0.00 56 1009.8
20260503182705 52 287 8.0 16.0 0.00 0.00 0.00 55 1009.9
20260503181705 52 295 9.0 13.0 0.00 0.00 0.00 57 1010.0
20260503181205 52 276 9.0 14.0 0.00 0.00 0.00 57 1009.9
20260503180205 52 296 6.0 12.0 0.00 0.00 0.00 56 1009.9
20260503175705 53 277 7.0 17.0 0.00 0.00 0.00 58 1010.0
20260503175205 53 291 10.0 20.0 0.00 0.00 0.00 57 1010.0
20260503174705 52 293 10.0 14.0 0.00 0.00 0.00 59 1010.0
20260503174205 51 279 10.0 18.0 0.00 0.00 0.00 58 1010.1
20260503173705 50 290 10.0 17.0 0.00 0.00 0.00 58 1010.1
20260503173205 50 288 9.0 15.0 0.00 0.00 0.00 57 1010.1
20260503172205 50 294 7.0 15.0 0.00 0.00 0.00 58 1010.1
20260503171705 50 304 5.0 15.0 0.00 0.00 0.00 57 1010.1
20260503171205 50 281 8.0 17.0 0.00 0.00 0.00 55 1010.0
20260503170705 50 300 7.0 14.0 0.00 0.00 0.00 56 1010.1
20260503170205 50 295 9.0 15.0 0.00 0.00 0.00 57 1010.0
20260503160204 51 300 11.0 17.0 0.00 0.00 0.00 61 1010.0
20260503150705 47 309 4.0 9.0 0.00 0.00 0.00 68 1010.3
20260503150205 47 289 3.0 8.0 0.00 0.00 0.00 68 1010.3
20260503131204 44 303 2.0 9.0 0.00 0.00 0.00 79 1011.0
20260503130705 44 290 5.0 9.0 0.00 0.00 0.00 80 1010.9
20260503130204 43 295 5.0 9.0 0.00 0.00 0.00 81 1010.9
20260503120205 41 280 1.0 2.0 0.00 0.01 0.00 89 1010.8
20260503110706 35 98 0.0 0.0 0.00 0.01 0.00 95 1010.5
20260503100204 32 126 0.0 0.0 0.00 0.06 0.00 95 1010.3
20260503090204 31 253 0.0 2.0 0.00 0.06 0.00 95 1010.3
20260503080705 33 285 2.0 3.0 0.00 0.06 0.00 92 1010.5
20260503080204 33 310 1.0 3.0 0.00 0.06 0.00 91 1010.6
20260503072706 35 287 2.0 5.0 0.00 0.06 0.00 89 1010.7
20260503072205 35 303 3.0 6.0 0.00 0.06 0.00 89 1010.7
20260503071705 35 291 3.0 3.0 0.00 0.06 0.00 89 1010.8
20260503071204 35 294 1.0 3.0 0.00 0.06 0.00 88 1010.9
20260503070204 36 298 2.0 3.0 0.00 0.07 0.00 87 1011.0
20260503060204 36 306 1.0 3.0 0.00 0.09 0.00 88 1011.2